Weather in Korovye

Russia / Kurgan Oblast     55°06′13″N   63°57′07″E
temp.,
°C
wind,
m/s
gust,
m/s
humid.,
%
clouds,
%
prec.,
mm/h
press.,
hPa
HPBL,
m
15 april, thu
thu1523:00+10wsw456746 0.0 102954
02:00+9wsw357056 0.0 102857
05:00+7wsw33725 0.0 102841
08:00+10sw36725 0.0 1027140
11:00+15sw46525 0.0 1025431
14:00+18wsw56375 0.0 1024779
17:00+18wsw46455 0.0 1022838
20:00+13sw45578 0.0 102145
16 april, fri
fri1623:00+11wsw4557100 0.0 102062
02:00+10wnw337085 0.0 102022
05:00+8wnw337910 0.0 102028
08:00+10nnw48790 0.0 1020265
11:00+11nne7777100 0.0 1022722
14:00+7ne7882100 0.0 1024674
17:00+8ne5668100 0.0 1024886
20:00+6e337466 0.0 102545
17 april, sat
sat1723:00+6ene237699 0.0 102560
02:00+4ene356997 0.0 102598
05:00+2ne22725 0.0 102525
08:00+4nne346245 0.0 1026185
11:00+8nne34445 0.0 10261271
14:00+10n33360 0.0 10251565
17:00+10nnw22345 0.0 10241767
20:00+8nw11465 0.0 102310
18 april, sun
sun1823:00+6wsw115254 0.0 102210
02:00+5sw33596 0.0 101932
05:00+3w4108953 0.0 1018203
08:00+5wnw611650 0.0 1017666
11:00+8nw8115371 0.0 10161594
14:00+6n81064100 0.1 10181346
17:00+4n8104588 0.1 10211958
20:00+1nne7104642 0.0 10251071
19 april, mon
mon1923:00−2nne69430 0.0 1028954
02:00−3nne59450 0.0 10311263
05:00−4nne510460 0.0 10321195
08:00−4nne78385 0.0 10341262
11:00−1nne67305 0.0 10341632
14:00+1nne572974 0.0 10332050
17:00+2n673091 0.0 10332152
20:00−1n33435 0.0 103427